| time (UTC) | temp F | wind direction | speed knots | gust knots | rain 1hr in | rain 24hr in | rain mn in | humidity % | barometer mb |
| 20260505070503 | 60 | 194 | 0.0 | 0.0 | 0.00 | 0.00 | 0.00 | 68 | 1014.9 |
| 20260505065504 | 60 | 231 | 0.0 | 1.7 | 0.00 | 0.00 | 0.00 | 67 | 1014.9 |
| 20260505065004 | 60 | 221 | 0.9 | 1.7 | 0.00 | 0.00 | 0.00 | 67 | 1014.9 |
| 20260505064504 | 60 | 180 | 0.0 | 0.9 | 0.00 | 0.00 | 0.00 | 67 | 1014.9 |
| 20260505064004 | 60 | 224 | 0.9 | 1.7 | 0.00 | 0.00 | 0.00 | 67 | 1014.9 |
| 20260505063503 | 60 | 230 | 0.9 | 1.7 | 0.00 | 0.00 | 0.00 | 67 | 1014.9 |
| 20260505062504 | 61 | 154 | 0.0 | 0.0 | 0.00 | 0.00 | 0.00 | 67 | 1014.8 |
| 20260505061503 | 61 | 228 | 0.0 | 1.7 | 0.00 | 0.00 | 0.00 | 66 | 1014.8 |
| 20260505061003 | 61 | 169 | 0.9 | 1.7 | 0.00 | 0.00 | 0.00 | 66 | 1014.8 |
| 20260505060503 | 61 | 237 | 0.9 | 1.7 | 0.00 | 0.00 | 0.00 | 66 | 1014.8 |
| 20260505060003 | 61 | 184 | 0.9 | 0.9 | 0.00 | 0.00 | 0.00 | 66 | 1014.9 |
| 20260505055004 | 62 | 236 | 0.0 | 1.7 | 0.00 | 0.00 | 0.00 | 65 | 1014.8 |
| 20260505054504 | 62 | 231 | 0.0 | 1.7 | 0.00 | 0.00 | 0.00 | 65 | 1014.8 |
| 20260505054004 | 62 | 162 | 0.9 | 2.6 | 0.00 | 0.00 | 0.00 | 65 | 1014.8 |
| 20260505053504 | 62 | 187 | 0.9 | 1.7 | 0.00 | 0.00 | 0.00 | 65 | 1014.9 |
| 20260505053004 | 62 | 259 | 0.9 | 1.7 | 0.00 | 0.00 | 0.00 | 65 | 1014.9 |
| 20260505052504 | 62 | 201 | 1.7 | 1.7 | 0.00 | 0.00 | 0.00 | 64 | 1015.0 |
| 20260505052004 | 62 | 182 | 0.9 | 1.7 | 0.00 | 0.00 | 0.00 | 65 | 1015.0 |
| 20260505051503 | 62 | 189 | 0.0 | 1.7 | 0.00 | 0.00 | 0.00 | 64 | 1015.0 |
| 20260505051003 | 63 | 218 | 0.0 | 1.7 | 0.00 | 0.00 | 0.00 | 64 | 1015.0 |
| 20260505050503 | 63 | 175 | 0.9 | 2.6 | 0.00 | 0.00 | 0.00 | 64 | 1015.0 |
| 20260505041504 | 64 | 177 | 0.9 | 2.6 | 0.00 | 0.00 | 0.00 | 62 | 1014.9 |
| 20260505041003 | 64 | 96 | 0.0 | 1.7 | 0.00 | 0.00 | 0.00 | 62 | 1014.9 |
| 20260505040505 | 65 | 171 | 0.9 | 1.7 | 0.00 | 0.00 | 0.00 | 61 | 1014.9 |
| 20260505040004 | 65 | 63 | 1.7 | 2.6 | 0.00 | 0.00 | 0.00 | 60 | 1014.9 |
| 20260505035504 | 65 | 160 | 1.7 | 2.6 | 0.00 | 0.00 | 0.00 | 60 | 1014.9 |
| 20260505035004 | 65 | 230 | 0.9 | 1.7 | 0.00 | 0.00 | 0.00 | 60 | 1014.9 |
| 20260505034503 | 65 | 111 | 0.9 | 1.7 | 0.00 | 0.00 | 0.00 | 60 | 1014.8 |
| 20260505033505 | 66 | 104 | 1.7 | 2.6 | 0.00 | 0.00 | 0.00 | 59 | 1014.8 |
| 20260505032004 | 66 | 161 | 0.9 | 1.7 | 0.00 | 0.00 | 0.00 | 58 | 1014.8 |
| 20260505031504 | 66 | 155 | 0.9 | 1.7 | 0.00 | 0.00 | 0.00 | 58 | 1014.8 |
| 20260505031004 | 66 | 206 | 0.0 | 1.7 | 0.00 | 0.00 | 0.00 | 58 | 1014.8 |
| 20260505030503 | 67 | 191 | 1.7 | 2.6 | 0.00 | 0.00 | 0.00 | 57 | 1014.8 |
| 20260505030002 | 67 | 128 | 1.7 | 2.6 | 0.00 | 0.00 | 0.00 | 57 | 1014.8 |
| 20260505025502 | 67 | 242 | 0.9 | 1.7 | 0.00 | 0.00 | 0.00 | 57 | 1014.8 |
| 20260505025002 | 67 | 123 | 0.9 | 2.6 | 0.00 | 0.00 | 0.00 | 56 | 1014.8 |
| 20260505024502 | 67 | 268 | 0.9 | 2.6 | 0.00 | 0.00 | 0.00 | 55 | 1014.7 |
| 20260505024002 | 67 | 197 | 1.7 | 4.3 | 0.00 | 0.00 | 0.00 | 55 | 1014.7 |
| 20260505023502 | 67 | 168 | 0.9 | 2.6 | 0.00 | 0.00 | 0.00 | 54 | 1014.7 |
| 20260505023003 | 67 | 341 | 0.0 | 0.9 | 0.00 | 0.00 | 0.00 | 52 | 1014.6 |
| 20260505022502 | 67 | 224 | 0.9 | 2.6 | 0.00 | 0.00 | 0.00 | 50 | 1014.5 |
| 20260505021003 | 66 | 231 | 0.9 | 1.7 | 0.00 | 0.00 | 0.00 | 47 | 1014.4 |
| 20260505020502 | 66 | 337 | 0.0 | 0.9 | 0.00 | 0.00 | 0.00 | 47 | 1014.4 |
| 20260505020003 | 66 | 343 | 0.0 | 0.9 | 0.00 | 0.00 | 0.00 | 47 | 1014.3 |
| 20260505015503 | 66 | 196 | 0.9 | 4.3 | 0.00 | 0.00 | 0.00 | 47 | 1014.2 |
| 20260505015002 | 65 | 271 | 0.0 | 1.7 | 0.00 | 0.00 | 0.00 | 48 | 1014.2 |
| 20260505014502 | 65 | 322 | 0.0 | 0.9 | 0.00 | 0.00 | 0.00 | 49 | 1014.2 |
| 20260505013003 | 64 | 334 | 0.0 | 0.9 | 0.00 | 0.00 | 0.00 | 50 | 1014.1 |
| 20260505012503 | 65 | 283 | 0.0 | 0.9 | 0.00 | 0.00 | 0.00 | 50 | 1014.0 |
| 20260505012002 | 65 | 316 | 0.0 | 0.9 | 0.00 | 0.00 | 0.00 | 50 | 1014.0 |
| 20260505011502 | 65 | 310 | 0.0 | 0.9 | 0.00 | 0.00 | 0.00 | 50 | 1013.9 |
| 20260505011003 | 65 | 301 | 0.0 | 0.9 | 0.00 | 0.00 | 0.00 | 49 | 1013.9 |
| 20260505010502 | 65 | 100 | 0.0 | 0.9 | 0.00 | 0.00 | 0.00 | 48 | 1013.8 |
| 20260505010002 | 66 | 195 | 0.0 | 0.9 | 0.00 | 0.00 | 0.00 | 48 | 1013.8 |
| 20260505005502 | 66 | 315 | 0.0 | 0.9 | 0.00 | 0.00 | 0.00 | 47 | 1013.7 |
| 20260505005002 | 67 | 116 | 0.0 | 0.9 | 0.00 | 0.00 | 0.00 | 46 | 1013.6 |
| 20260505004502 | 67 | 355 | 0.0 | 0.9 | 0.00 | 0.00 | 0.00 | 45 | 1013.6 |
| 20260505004002 | 67 | 10 | 0.0 | 0.9 | 0.00 | 0.00 | 0.00 | 45 | 1013.5 |
| 20260505003003 | 68 | 20 | 0.0 | 0.9 | 0.00 | 0.00 | 0.00 | 43 | 1013.4 |
| 20260505002002 | 69 | 158 | 0.0 | 0.9 | 0.00 | 0.00 | 0.00 | 42 | 1013.3 |
| 20260505001502 | 69 | 343 | 0.0 | 0.9 | 0.00 | 0.00 | 0.00 | 43 | 1013.3 |
| 20260505001003 | 69 | 227 | 0.0 | 1.7 | 0.00 | 0.00 | 0.00 | 42 | 1013.2 |
| 20260505000502 | 70 | 164 | 0.0 | 1.7 | 0.00 | 0.00 | 0.00 | 42 | 1013.2 |
| 20260505000002 | 70 | 291 | 0.0 | 0.9 | 0.00 | 0.00 | 0.00 | 40 | 1013.1 |
| 20260504235502 | 71 | 164 | 0.0 | 0.9 | 0.00 | 0.00 | 0.00 | 39 | 1013.1 |
| 20260504235003 | 72 | 62 | 0.0 | 0.0 | 0.00 | 0.00 | 0.00 | 38 | 1013.0 |
| 20260504234504 | 73 | 156 | 0.0 | 0.0 | 0.00 | 0.00 | 0.00 | 37 | 1013.0 |
| 20260504233503 | 74 | 173 | 0.0 | 0.0 | 0.00 | 0.00 | 0.00 | 34 | 1012.9 |
| 20260504233003 | 74 | 219 | 0.0 | 0.9 | 0.00 | 0.00 | 0.00 | 33 | 1012.8 |
| 20260504232503 | 75 | 90 | 0.0 | 1.7 | 0.00 | 0.00 | 0.00 | 32 | 1012.8 |
| 20260504232003 | 75 | 194 | 0.0 | 1.7 | 0.00 | 0.00 | 0.00 | 32 | 1012.7 |
| 20260504231502 | 75 | 223 | 0.0 | 1.7 | 0.00 | 0.00 | 0.00 | 32 | 1012.7 |
| 20260504231002 | 75 | 293 | 0.9 | 1.7 | 0.00 | 0.00 | 0.00 | 33 | 1012.7 |
| 20260504230502 | 76 | 334 | 0.9 | 2.6 | 0.00 | 0.00 | 0.00 | 31 | 1012.7 |
| 20260504230002 | 76 | 10 | 0.9 | 2.6 | 0.00 | 0.00 | 0.00 | 32 | 1012.7 |
| 20260504225502 | 76 | 43 | 0.9 | 1.7 | 0.00 | 0.00 | 0.00 | 32 | 1012.7 |
| 20260504225002 | 76 | 265 | 0.9 | 1.7 | 0.00 | 0.00 | 0.00 | 32 | 1012.7 |
| 20260504224503 | 77 | 205 | 1.7 | 2.6 | 0.00 | 0.00 | 0.00 | 32 | 1012.7 |
| 20260504224003 | 77 | 283 | 0.9 | 2.6 | 0.00 | 0.00 | 0.00 | 31 | 1012.7 |
| 20260504223002 | 77 | 314 | 1.7 | 2.6 | 0.00 | 0.00 | 0.00 | 32 | 1012.9 |
| 20260504222003 | 77 | 283 | 0.9 | 1.7 | 0.00 | 0.00 | 0.00 | 31 | 1012.8 |
| 20260504221502 | 78 | 199 | 0.9 | 2.6 | 0.00 | 0.00 | 0.00 | 31 | 1012.8 |
| 20260504221002 | 78 | 210 | 1.7 | 6.1 | 0.00 | 0.00 | 0.00 | 31 | 1012.8 |
| 20260504220502 | 78 | 200 | 0.9 | 2.6 | 0.00 | 0.00 | 0.00 | 32 | 1012.8 |
| 20260504215502 | 78 | 196 | 0.9 | 2.6 | 0.00 | 0.00 | 0.00 | 32 | 1012.8 |
| 20260504215002 | 78 | 167 | 0.9 | 4.3 | 0.00 | 0.00 | 0.00 | 32 | 1012.9 |
| 20260504214502 | 78 | 246 | 0.9 | 2.6 | 0.00 | 0.00 | 0.00 | 32 | 1012.7 |
| 20260504214002 | 78 | 147 | 0.9 | 2.6 | 0.00 | 0.00 | 0.00 | 32 | 1012.7 |
| 20260504213502 | 78 | 174 | 2.6 | 5.2 | 0.00 | 0.00 | 0.00 | 31 | 1012.6 |
| 20260504212502 | 78 | 130 | 0.9 | 5.2 | 0.00 | 0.00 | 0.00 | 32 | 1012.8 |
| 20260504212002 | 78 | 187 | 1.7 | 6.1 | 0.00 | 0.00 | 0.00 | 32 | 1012.9 |
| 20260504211503 | 78 | 264 | 0.9 | 2.6 | 0.00 | 0.00 | 0.00 | 32 | 1012.9 |
| 20260504211003 | 78 | 188 | 0.9 | 4.3 | 0.00 | 0.00 | 0.00 | 31 | 1012.9 |
| 20260504210502 | 78 | 235 | 0.9 | 5.2 | 0.00 | 0.00 | 0.00 | 32 | 1013.0 |
| 20260504210003 | 78 | 227 | 0.9 | 2.6 | 0.00 | 0.00 | 0.00 | 32 | 1012.9 |
| 20260504205502 | 78 | 167 | 1.7 | 4.3 | 0.00 | 0.00 | 0.00 | 32 | 1012.8 |
| 20260504205003 | 78 | 223 | 0.9 | 2.6 | 0.00 | 0.00 | 0.00 | 32 | 1012.9 |
| 20260504204003 | 78 | 165 | 0.9 | 5.2 | 0.00 | 0.00 | 0.00 | 32 | 1012.9 |
| 20260504203502 | 78 | 169 | 1.7 | 2.6 | 0.00 | 0.00 | 0.00 | 31 | 1013.1 |
| 20260504201502 | 79 | 138 | 1.7 | 5.2 | 0.00 | 0.00 | 0.00 | 31 | 1013.1 |
| 20260504201002 | 79 | 212 | 0.9 | 2.6 | 0.00 | 0.00 | 0.00 | 32 | 1013.2 |
| 20260504200502 | 79 | 228 | 1.7 | 4.3 | 0.00 | 0.00 | 0.00 | 31 | 1013.1 |
| 20260504200003 | 79 | 334 | 0.9 | 4.3 | 0.00 | 0.00 | 0.00 | 31 | 1013.1 |
| 20260504195003 | 79 | 234 | 0.9 | 2.6 | 0.00 | 0.00 | 0.00 | 32 | 1013.4 |
| 20260504194503 | 79 | 151 | 1.7 | 6.1 | 0.00 | 0.00 | 0.00 | 33 | 1013.5 |
| 20260504194002 | 78 | 28 | 0.9 | 2.6 | 0.00 | 0.00 | 0.00 | 33 | 1013.5 |
| 20260504193503 | 78 | 146 | 1.7 | 5.2 | 0.00 | 0.00 | 0.00 | 32 | 1013.6 |
| 20260504193003 | 77 | 250 | 1.7 | 5.2 | 0.00 | 0.00 | 0.00 | 33 | 1013.6 |
| 20260504192502 | 77 | 175 | 1.7 | 4.3 | 0.00 | 0.00 | 0.00 | 34 | 1013.7 |
| 20260504192002 | 77 | 142 | 2.6 | 4.3 | 0.00 | 0.00 | 0.00 | 32 | 1013.8 |
| 20260504191503 | 77 | 154 | 1.7 | 5.2 | 0.00 | 0.00 | 0.00 | 34 | 1013.8 |
| 20260504191002 | 78 | 210 | 1.7 | 4.3 | 0.00 | 0.00 | 0.00 | 34 | 1013.8 |
| 20260504190502 | 77 | 206 | 1.7 | 5.2 | 0.00 | 0.00 | 0.00 | 36 | 1013.8 |
| 20260504190003 | 78 | 155 | 2.6 | 7.0 | 0.00 | 0.00 | 0.00 | 34 | 1013.8 |
| 20260504185503 | 77 | 323 | 1.7 | 2.6 | 0.00 | 0.00 | 0.00 | 33 | 1013.9 |
| 20260504185002 | 77 | 244 | 1.7 | 2.6 | 0.00 | 0.00 | 0.00 | 36 | 1013.9 |
| 20260504184503 | 77 | 161 | 0.9 | 6.1 | 0.00 | 0.00 | 0.00 | 34 | 1014.0 |
| 20260504184003 | 77 | 213 | 1.7 | 4.3 | 0.00 | 0.00 | 0.00 | 34 | 1014.0 |
| 20260504183502 | 77 | 144 | 1.7 | 2.6 | 0.00 | 0.00 | 0.00 | 35 | 1014.2 |
| 20260504183003 | 77 | 204 | 1.7 | 5.2 | 0.00 | 0.00 | 0.00 | 34 | 1014.3 |
| 20260504182503 | 77 | 280 | 0.9 | 2.6 | 0.00 | 0.00 | 0.00 | 35 | 1014.2 |
| 20260504182002 | 76 | 200 | 1.7 | 2.6 | 0.00 | 0.00 | 0.00 | 34 | 1014.2 |
| 20260504181503 | 76 | 306 | 1.7 | 2.6 | 0.00 | 0.00 | 0.00 | 36 | 1014.4 |
| 20260504181003 | 76 | 283 | 0.9 | 2.6 | 0.00 | 0.00 | 0.00 | 36 | 1014.5 |
| 20260504180502 | 76 | 200 | 0.9 | 2.6 | 0.00 | 0.00 | 0.00 | 36 | 1014.4 |
| 20260504180003 | 76 | 151 | 1.7 | 4.3 | 0.00 | 0.00 | 0.00 | 39 | 1014.5 |
| 20260504175003 | 75 | 352 | 1.7 | 2.6 | 0.00 | 0.00 | 0.00 | 35 | 1014.5 |
| 20260504174502 | 75 | 219 | 0.9 | 1.7 | 0.00 | 0.00 | 0.00 | 36 | 1014.5 |
| 20260504173502 | 74 | 339 | 1.7 | 5.2 | 0.00 | 0.00 | 0.00 | 37 | 1014.6 |
| 20260504173002 | 74 | 176 | 1.7 | 4.3 | 0.00 | 0.00 | 0.00 | 34 | 1014.6 |
| 20260504172503 | 74 | 262 | 1.7 | 4.3 | 0.00 | 0.00 | 0.00 | 36 | 1014.8 |
| 20260504172004 | 74 | 159 | 0.9 | 4.3 | 0.00 | 0.00 | 0.00 | 37 | 1014.9 |
| 20260504171504 | 74 | 292 | 0.9 | 2.6 | 0.00 | 0.00 | 0.00 | 39 | 1014.9 |
| 20260504171003 | 73 | 174 | 1.7 | 4.3 | 0.00 | 0.00 | 0.00 | 36 | 1015.0 |
| 20260504170502 | 73 | 154 | 1.7 | 4.3 | 0.00 | 0.00 | 0.00 | 39 | 1015.1 |
| 20260504151003 | 68 | 343 | 1.7 | 5.2 | 0.00 | 0.00 | 0.00 | 45 | 1016.1 |
| 20260504150503 | 69 | 250 | 0.9 | 5.2 | 0.00 | 0.00 | 0.00 | 45 | 1016.0 |
| 20260504141004 | 64 | 116 | 0.9 | 2.6 | 0.00 | 0.00 | 0.00 | 56 | 1016.3 |
| 20260504140502 | 64 | 137 | 0.9 | 2.6 | 0.00 | 0.00 | 0.00 | 56 | 1016.3 |
| 20260504130502 | 57 | 188 | 0.9 | 2.6 | 0.00 | 0.00 | 0.00 | 72 | 1016.5 |
| 20260504110502 | 47 | 302 | 0.0 | 0.9 | 0.00 | 0.00 | 0.00 | 90 | 1017.0 |
| 20260504100502 | 45 | 171 | 0.9 | 0.9 | 0.00 | 0.00 | 0.00 | 89 | 1016.6 |
| 20260504082003 | 42 | 193 | 0.0 | 0.9 | 0.00 | 0.00 | 0.00 | 90 | 1016.7 |
| 20260504081002 | 41 | 76 | 0.0 | 0.9 | 0.00 | 0.00 | 0.00 | 90 | 1016.7 |
| 20260504080503 | 41 | 254 | 0.0 | 0.9 | 0.00 | 0.00 | 0.00 | 89 | 1016.7 |